Terug naar catalogus

STARLINK-31416

ActiefCommunicatieVLEO
NORAD 59355·PAYLOAD·🇺🇸 United States

Gelanceerd Mar 31, 2024 vanaf Cape Canaveral Space Force Station

Loading…

Volgende Passages (komende 24 uur)

TLE

VersSource: CelesTrak SupGP

Epoch: Sep 15, 2026, 02:32 UTC

1 59355C 24060H   26258.10604167 -.00005422  00000+0 -19642-3 0  2584
2 59355  42.9995 270.1891 0001312 265.1371 358.5694 15.27578378    11

Volg STARLINK-31416 in realtime met AllMySat

Download on the App Store